This demonstration page uses our WeatherBlox Daily Observations layout. Learn more.

Left ArrowRight Arrow

39.01783, -85.05884

Hourly Observations for February 5, 2019

Temp ( °F °C ) Dew Point ( °F °C ) Humidity (%) Winds ( mph kmh ) Pressure ( in mb ) Visibility ( mi km ) Precip ( " mm )
12:52 am 00:52 Cloudy with Mist and Fog 56 13.3 54 12.2 93 93 SSW 6 9 29.90 1013 0 0 0.00 0.03
1:52 am 01:52 Cloudy with Mist and Fog 56 13.3 55 12.8 97 97 SSW 8 13 29.91 1013 0 0 0.00 0.00
2:52 am 02:52 Cloudy with Drizzle 56 13.3 55 12.8 97 97 SSW 6 9 29.92 1013 1 1 0.02 0.51
3:52 am 03:52 Cloudy with Drizzle 56 13.3 55 12.8 97 97 SW 5 7 29.94 1014 1 1 0.01 0.25
4:52 am 04:52 Mostly Cloudy with Fog 55 12.8 53 11.7 93 93 WNW 5 7 29.96 1015 1 1 0.01 0.25
5:42 am 05:42 Mostly Cloudy with Fog 53 11.7 52 11.1 96 96 NNW 13 20 29.99 1016 0 0 0.00 0.00
5:52 am 05:52 Mostly Cloudy with Fog 50 10 49 9.4 96 96 NNW 13 20 29.99 1016 0 0 0.00 0.00
6:02 am 06:02 Mostly Cloudy with Fog 50 10 48 8.9 93 93 NNW 12 19 30.01 1016 5 8 0.00 0.00
6:23 am 06:23 Cloudy with Mist and Fog 48 8.9 47 8.3 96 96 N 12 19 30.02 1017 1 2 0.00 0.00
6:37 am 06:37 Cloudy with Mist and Fog 47 8.3 46 7.8 97 97 N 13 20 30.03 1017 2 2 0.00 0.00
6:52 am 06:52 Cloudy with Mist and Fog 46 7.8 45 7.2 96 96 N 10 17 30.01 1016 2 2 0.00 0.00
7:30 am 07:30 Cloudy with Mist and Fog 45 7.2 43 6.1 93 93 N 8 13 30.06 1018 2 3 0.00 0.00
7:52 am 07:52 Cloudy with Mist and Fog 45 7.2 43 6.1 93 93 NNW 8 13 30.05 1018 2 3 0.00 0.00
8:03 am 08:03 Cloudy with Mist and Fog 45 7.2 43 6.1 93 93 NNW 6 9 30.08 1019 1 2 0.00 0.00
8:12 am 08:12 Cloudy with Mist and Fog 44 6.7 43 6.1 96 96 N 7 11 30.08 1019 1 1 0.00 0.00
8:38 am 08:38 Cloudy with Mist and Fog 44 6.7 42 5.6 93 93 N 8 13 30.08 1019 0 0 0.00 0.00
8:52 am 08:52 Cloudy with Mist and Fog 44 6.7 42 5.6 93 93 N 7 11 30.06 1018 1 2 0.00 0.00
9:52 am 09:52 Cloudy with Mist and Fog 44 6.7 42 5.6 93 93 NNW 8 13 30.07 1018 1 2 0.00 0.00
10:52 am 10:52 Cloudy with Drizzle 43 6.1 42 5.6 97 97 NNW 9 15 30.09 1019 1 2 0.00 0.03
11:52 am 11:52 Cloudy with Drizzle 44 6.7 42 5.6 93 93 N 6 9 30.10 1019 1 2 0.00 0.03
12:20 pm 12:20 Cloudy with Mist and Fog 44 6.7 43 6.1 96 96 N 6 9 30.12 1020 1 1 0.00 0.03
12:52 pm 12:52 Cloudy with Mist and Fog 45 7.2 43 6.1 93 93 VRB 3 6 30.08 1019 1 1 0.00 0.03
1:52 pm 13:52 Cloudy with Mist and Fog 46 7.8 43 6.1 89 89 NNW 7 11 30.06 1018 1 1 0.00 0.00
2:52 pm 14:52 Cloudy with Mist and Fog 46 7.8 43 6.1 89 89 N 3 6 30.06 1018 1 1 0.00 0.00
3:34 pm 15:34 Cloudy with Mist and Fog 47 8.3 44 6.7 90 90 NE 9 15 30.06 1018 2 3 0.00 0.00
3:52 pm 15:52 Cloudy with Mist and Fog 47 8.3 43 6.1 86 86 NE 7 11 30.04 1017 2 3 0.00 0.00
4:52 pm 16:52 Cloudy with Mist and Fog 45 7.2 43 6.1 93 93 NE 9 15 30.05 1018 1 2 0.00 0.00
5:52 pm 17:52 Cloudy with Mist and Fog 45 7.2 42 5.6 90 90 ENE 9 15 30.04 1017 1 2 0.00 0.00
6:52 pm 18:52 Cloudy with Light Rain 45 7.2 43 6.1 93 93 NE 8 13 30.05 1018 1 2 0.02 0.51
7:52 pm 19:52 Cloudy with Mist and Fog 45 7.2 43 6.1 93 93 ENE 8 13 30.05 1018 1 2 0.00 0.03
8:52 pm 20:52 Cloudy with Mist and Fog 45 7.2 44 6.7 97 97 ENE 8 13 30.04 1017 1 2 0.00 0.00
9:52 pm 21:52 Cloudy with Mist and Fog 45 7.2 44 6.7 97 97 E 7 11 30.03 1017 1 1 0.00 0.00
10:52 pm 22:52 Mostly Cloudy with Mist and Fog 45 7.2 44 6.7 97 97 E 6 9 30.01 1016 1 1 0.00 0.00
11:52 pm 23:52 Cloudy with Light Rain 46 7.8 45 7.2 96 96 NNW 3 6 30.02 1017 1 1 0.00 0.03

Powered by AerisWeather